Time,TemperatureF,DewpointF,PressureIn,WindDirection,WindDirectionDegrees,WindSpeedMPH,WindSpeedGustMPH,Humidity,HourlyPrecipIn,Conditions,Clouds,dailyrainin,SoftwareType,DateUTC
2013-01-24 17:42:00,31.2,10.8,30.37,NNE,28,10.0,10.0,42,0.00,,---,0.00,VWS V14.01,2013-01-24 22:42:00,
2013-01-24 17:47:00,31.1,9.6,30.36,NNE,17,15.0,26.0,40,0.00,,---,0.00,VWS V14.01,2013-01-24 22:47:00,
2013-01-24 17:52:00,30.8,8.8,30.36,North,355,16.0,24.0,39,0.00,,---,0.00,VWS V14.01,2013-01-24 22:52:00,
2013-01-24 17:57:00,30.7,10.3,30.36,NNE,14,23.0,23.0,42,0.00,,---,0.00,VWS V14.01,2013-01-24 22:57:00,
2013-01-24 18:02:00,30.6,10.2,30.39,NNE,23,15.0,20.0,42,0.00,,---,0.00,VWS V14.01,2013-01-24 23:02:00,
2013-01-24 18:07:00,30.5,10.2,30.39,North,9,21.0,25.0,42,0.00,,---,0.00,VWS V14.01,2013-01-24 23:07:00,
2013-01-24 18:12:00,30.4,9.5,30.39,NNE,17,13.0,27.0,41,0.00,,---,0.00,VWS V14.01,2013-01-24 23:12:00,
2013-01-24 18:17:00,30.3,10.5,30.39,North,360,13.0,23.0,43,0.00,,---,0.00,VWS V14.01,2013-01-24 23:17:00,
2013-01-24 18:22:00,30.3,10.5,30.39,NNE,22,11.0,23.0,43,0.00,,---,0.00,VWS V14.01,2013-01-24 23:22:00,
2013-01-24 18:27:00,30.2,11.4,30.39,North,9,8.0,17.0,45,0.00,,---,0.00,VWS V14.01,2013-01-24 23:27:00,
2013-01-24 18:32:00,30.1,10.8,30.40,NNE,23,12.0,18.0,44,0.00,,---,0.00,VWS V14.01,2013-01-24 23:32:00,
2013-01-24 18:37:00,30.0,10.7,30.40,NNE,19,22.0,25.0,44,0.00,,---,0.00,VWS V14.01,2013-01-24 23:37:00,
2013-01-24 18:42:00,29.8,10.6,30.40,North,355,12.0,20.0,44,0.00,,---,0.00,VWS V14.01,2013-01-24 23:42:00,
2013-01-24 18:47:00,29.9,10.6,30.40,NNE,13,15.0,22.0,44,0.00,,---,0.00,VWS V14.01,2013-01-24 23:47:00,
2013-01-24 18:52:00,29.8,10.6,30.40,NNE,18,13.0,19.0,44,0.00,,---,0.00,VWS V14.01,2013-01-24 23:52:00,
2013-01-24 18:57:00,29.9,11.6,30.40,North,355,11.0,18.0,46,0.00,,---,0.00,VWS V14.01,2013-01-24 23:57:00,
2013-01-24 19:02:00,29.7,10.5,30.41,North,11,17.0,20.0,44,0.00,,---,0.00,VWS V14.01,2013-01-25 00:02:00,
2013-01-24 19:07:00,29.6,10.4,30.41,North,10,9.0,18.0,44,0.00,,---,0.00,VWS V14.01,2013-01-25 00:07:00,
2013-01-24 19:12:00,29.5,9.8,30.41,North,360,13.0,19.0,43,0.00,,---,0.00,VWS V14.01,2013-01-25 00:12:00,
2013-01-24 19:17:00,29.5,10.8,30.41,North,5,10.0,15.0,45,0.00,,---,0.00,VWS V14.01,2013-01-25 00:17:00,
2013-01-24 19:22:00,29.4,10.2,30.41,North,10,16.0,19.0,44,0.00,,---,0.00,VWS V14.01,2013-01-25 00:22:00,
2013-01-24 19:27:00,29.3,9.6,30.41,NNE,26,16.0,21.0,43,0.00,,---,0.00,VWS V14.01,2013-01-25 00:27:00,
2013-01-24 19:32:00,29.3,10.6,30.41,NNE,15,10.0,20.0,45,0.00,,---,0.00,VWS V14.01,2013-01-25 00:32:00,
2013-01-24 19:37:00,29.2,10.0,30.41,NNE,17,9.0,18.0,44,0.00,,---,0.00,VWS V14.01,2013-01-25 00:37:00,
2013-01-24 19:42:00,29.2,9.5,30.41,NNE,13,14.0,19.0,43,0.00,,---,0.00,VWS V14.01,2013-01-25 00:42:00,
2013-01-24 19:47:00,29.1,9.9,30.42,North,11,13.0,17.0,44,0.00,,---,0.00,VWS V14.01,2013-01-25 00:47:00,
2013-01-24 19:52:00,29.1,10.4,30.42,NNE,23,16.0,18.0,45,0.00,,---,0.00,VWS V14.01,2013-01-25 00:52:00,
2013-01-24 19:57:00,29.2,10.5,30.42,NNE,24,13.0,17.0,45,0.00,,---,0.00,VWS V14.01,2013-01-25 00:57:00,
2013-01-24 20:02:00,29.1,10.4,30.42,NNE,19,9.0,22.0,45,0.00,,---,0.00,VWS V14.01,2013-01-25 01:02:00,
2013-01-24 20:07:00,29.1,9.9,30.42,NNE,27,15.0,19.0,44,0.00,,---,0.00,VWS V14.01,2013-01-25 01:07:00,
2013-01-24 20:12:00,29.0,10.3,30.42,NNE,26,9.0,17.0,45,0.00,,---,0.00,VWS V14.01,2013-01-25 01:12:00,
2013-01-24 20:17:00,28.9,9.7,30.43,NNE,15,16.0,17.0,44,0.00,,---,0.00,VWS V14.01,2013-01-25 01:17:00,
2013-01-24 20:22:00,28.9,9.7,30.43,North,5,9.0,15.0,44,0.00,,---,0.00,VWS V14.01,2013-01-25 01:22:00,
2013-01-24 20:27:00,28.8,9.1,30.43,NNE,26,20.0,21.0,43,0.00,,---,0.00,VWS V14.01,2013-01-25 01:27:00,
2013-01-24 20:32:00,28.9,9.2,30.44,NNE,16,15.0,19.0,43,0.00,,---,0.00,VWS V14.01,2013-01-25 01:32:00,
2013-01-24 20:37:00,28.8,9.6,30.44,NNE,25,14.0,22.0,44,0.00,,---,0.00,VWS V14.01,2013-01-25 01:37:00,
2013-01-24 20:42:00,28.9,10.2,30.44,NNE,25,12.0,16.0,45,0.00,,---,0.00,VWS V14.01,2013-01-25 01:42:00,
2013-01-24 20:47:00,28.8,9.1,30.44,NNW,344,13.0,19.0,43,0.00,,---,0.00,VWS V14.01,2013-01-25 01:47:00,
2013-01-24 20:52:00,28.7,9.1,30.44,NNE,20,12.0,17.0,43,0.00,,---,0.00,VWS V14.01,2013-01-25 01:52:00,
2013-01-24 20:57:00,28.7,9.6,30.44,NNE,31,13.0,17.0,44,0.00,,---,0.00,VWS V14.01,2013-01-25 01:57:00,
2013-01-24 21:02:00,28.7,10.1,30.44,North,5,12.0,19.0,45,0.00,,---,0.00,VWS V14.01,2013-01-25 02:02:00,
2013-01-24 21:07:00,28.7,9.6,30.44,NNE,12,11.0,19.0,44,0.00,,---,0.00,VWS V14.01,2013-01-25 02:07:00,
2013-01-24 21:12:00,28.6,10.0,30.44,NNE,14,10.0,18.0,45,0.00,,---,0.00,VWS V14.01,2013-01-25 02:12:00,
2013-01-24 21:17:00,28.6,10.5,30.44,North,11,13.0,17.0,46,0.00,,---,0.00,VWS V14.01,2013-01-25 02:17:00,
2013-01-24 21:22:00,28.6,9.5,30.44,NNE,17,11.0,18.0,44,0.00,,---,0.00,VWS V14.01,2013-01-25 02:22:00,
2013-01-24 21:27:00,28.6,10.0,30.44,North,11,9.0,16.0,45,0.00,,---,0.00,VWS V14.01,2013-01-25 02:27:00,
2013-01-24 21:32:00,28.6,9.5,30.44,NNE,15,10.0,18.0,44,0.00,,---,0.00,VWS V14.01,2013-01-25 02:32:00,
2013-01-24 21:37:00,28.5,9.9,30.44,North,360,10.0,14.0,45,0.00,,---,0.00,VWS V14.01,2013-01-25 02:37:00,
2013-01-24 21:42:00,28.4,9.3,30.44,NNE,22,14.0,17.0,44,0.00,,---,0.00,VWS V14.01,2013-01-25 02:42:00,
2013-01-24 21:47:00,28.4,10.3,30.44,NNE,25,14.0,16.0,46,0.00,,---,0.00,VWS V14.01,2013-01-25 02:47:00,
2013-01-24 21:52:00,28.4,9.8,30.44,North,5,10.0,14.0,45,0.00,,---,0.00,VWS V14.01,2013-01-25 02:52:00,
2013-01-24 21:57:00,28.4,10.8,30.44,NNE,17,11.0,16.0,47,0.00,,---,0.00,VWS V14.01,2013-01-25 02:57:00,
2013-01-24 22:02:00,28.4,11.2,30.44,North,5,9.0,14.0,48,0.00,,---,0.00,VWS V14.01,2013-01-25 03:02:00,
2013-01-24 22:07:00,28.4,11.2,30.44,NNE,24,6.0,12.0,48,0.00,,---,0.00,VWS V14.01,2013-01-25 03:07:00,
2013-01-24 22:12:00,28.3,11.6,30.44,North,5,8.0,11.0,49,0.00,,---,0.00,VWS V14.01,2013-01-25 03:12:00,
2013-01-24 22:17:00,28.2,11.0,30.44,NNE,32,11.0,15.0,48,0.00,,---,0.00,VWS V14.01,2013-01-25 03:17:00,
2013-01-24 22:22:00,28.2,11.5,30.44,NNE,29,5.0,15.0,49,0.00,,---,0.00,VWS V14.01,2013-01-25 03:22:00,
2013-01-24 22:27:00,28.2,11.5,30.44,NNE,22,7.0,14.0,49,0.00,,---,0.00,VWS V14.01,2013-01-25 03:27:00,
2013-01-24 22:32:00,28.2,12.4,30.45,NNE,24,11.0,15.0,51,0.00,,---,0.00,VWS V14.01,2013-01-25 03:32:00,
2013-01-24 22:37:00,28.1,11.9,30.45,NNE,20,7.0,15.0,50,0.00,,---,0.00,VWS V14.01,2013-01-25 03:37:00,
2013-01-24 22:42:00,28.2,12.9,30.45,NNE,17,11.0,13.0,52,0.00,,---,0.00,VWS V14.01,2013-01-25 03:42:00,
2013-01-24 22:47:00,28.1,11.9,30.44,NNE,22,7.0,14.0,50,0.00,,---,0.00,VWS V14.01,2013-01-25 03:47:00,
2013-01-24 22:52:00,28.1,11.9,30.44,NNE,18,6.0,14.0,50,0.00,,---,0.00,VWS V14.01,2013-01-25 03:52:00,
2013-01-24 22:57:00,28.1,11.4,30.44,NNE,20,11.0,15.0,49,0.00,,---,0.00,VWS V14.01,2013-01-25 03:57:00,
2013-01-24 23:02:00,28.1,10.9,30.44,NNE,32,13.0,19.0,48,0.00,,---,0.00,VWS V14.01,2013-01-25 04:02:00,
2013-01-24 23:07:00,28.1,10.9,30.44,NNE,15,16.0,18.0,48,0.00,,---,0.00,VWS V14.01,2013-01-25 04:07:00,
2013-01-24 23:12:00,28.1,10.9,30.44,NNE,26,10.0,16.0,48,0.00,,---,0.00,VWS V14.01,2013-01-25 04:12:00,
2013-01-24 23:17:00,28.1,10.9,30.44,North,9,15.0,16.0,48,0.00,,---,0.00,VWS V14.01,2013-01-25 04:17:00,
2013-01-24 23:22:00,28.1,10.9,30.44,NNE,30,13.0,18.0,48,0.00,,---,0.00,VWS V14.01,2013-01-25 04:22:00,
2013-01-24 23:27:00,28.1,11.4,30.44,NNE,17,7.0,16.0,49,0.00,,---,0.00,VWS V14.01,2013-01-25 04:27:00,
2013-01-24 23:32:00,28.1,10.9,30.44,North,5,12.0,18.0,48,0.00,,---,0.00,VWS V14.01,2013-01-25 04:32:00,
2013-01-24 23:37:00,28.1,10.9,30.44,North,5,11.0,16.0,48,0.00,,---,0.00,VWS V14.01,2013-01-25 04:37:00,
2013-01-24 23:42:00,28.0,10.9,30.44,NNE,20,10.0,14.0,48,0.00,,---,0.00,VWS V14.01,2013-01-25 04:42:00,
2013-01-24 23:47:00,28.0,10.9,30.44,NNE,27,12.0,14.0,48,0.00,,---,0.00,VWS V14.01,2013-01-25 04:47:00,
2013-01-24 23:52:00,28.0,10.9,30.44,NNE,17,6.0,19.0,48,0.00,,---,0.00,VWS V14.01,2013-01-25 04:52:00,
2013-01-24 23:57:00,28.0,9.9,30.44,NNE,18,10.0,17.0,46,0.00,,---,0.00,VWS V14.01,2013-01-25 04:57:00,